sat.trackr.live / text

‹ back to catalog

TIANPING-3A 02

NORAD 63432 · 2025-068A

PAYLOAD ACTIVE UNKNOWN

§ Identity

Operator
Country
PRC
Launch date
2025-04-03
Launch site
TAISC
Launch vehicle
Mass (kg)
RCS (m²)

External: N2YO · Heavens-Above · Gunter

§ Orbital elements

Epoch: 2026-05-25T03:47:23.938080Z

Period
96.88 min
Inclination
42.9989°
Eccentricity
0.0229347
Mean motion
14.86349177 rev/d
Perigee alt
449.1 km
Apogee alt
769.6 km
Semi-major
6,987.5 km
B*
1.8331e-4
RAAN
169.1072°
Arg perigee
101.1070°
Mean anomaly
261.5645°
Rev number
6,195

§ Raw data

TIANPING-3A 021 63432U 25068A   26145.15791595  .00002405  00000+0  18331-3 0  99982 63432  42.9989 169.1072 0229347 101.1070 261.5645 14.86349177 61954

JSON: /api/v1/satellites/63432 · /tle

For live sub-satellite position, see the globe view (requires WebGL).

§ Visibility from observer

Set your observer location to see the next 7 days of passes ≥ 10°. The values pass through the URL so the page stays shareable.

No JS? Fill the form by hand. The geolocation button needs JavaScript.